Portada
METAR-TAF:

METAR-TAF

Aeroports :

Marshfield, Massachusetts, Estats Units d'Amèrica

latitud: 42-05-54N, longitud: 070-40-20W, altitud: 3 m

Observació

L'informe es va fer fa 30 minuts, a les 01:55 UTC
Vent 8 kt del Oest amb ràfegues de 18 kt, variant entre Sud-Oest i Oest/Nord-Oest
Temperatura -3°C
Humitat 28%
Pressió 1016 hPa
Visibilitat: 16.1 km
Cel clar

METAR: KGHG 030155Z AUTO 27008G18KT 230V290 10SM CLR M03/M19 A2999 RMK AO2

Hora: 21:25 (02:25 UTC)


TAF: manca

Observacions i pronòstics meteorològics de més de 4000 aeroports (METAR i TAF).

Les estacions disponibles són els punts grocs i vermells al mapa.

Posi el ratolí al punt desitjat per veure el nom de l'estació.

Feu clic per veure les observacions i els pronòstics meteorològics.

Per canviar el mapa: feu clic els botons verds amb una creu de color negre per apropar; al botó verd amb un guió per allunyar la imatge; o en les fletxes verdes per a mapes adjacents.


METAR-TAF: